Regional Weather Roundup
Issued by NWS

Home | Current Version | Previous Version | Text Only | Print | Product List | Glossary On
Versions: 1 2 3 4 5 6 7 8 9 10 11 12 13 14 15 16 17 18 19 20 21 22 23 24 25 26 27 28 29 30 31 32 33 34 35 36 37 38 39 40 41 42 43 44 45 46 47 48 49 50
000
ASUS45 KREV 050510
RWRNV
NEVADA REGIONAL WEATHER ROUNDUP
NATIONAL WEATHER SERVICE RENO NV
900 PM PST SUN DEC 04 2016

NOTE: "FAIR" INDICATES FEW OR NO CLOUDS BELOW 12,000 FEET WITH NO
SIGNIFICANT WEATHER AND/OR OBSTRUCTIONS TO VISIBILITY.

NVZ001-003-004-050600-
WESTERN NEVADA

CITY           SKY/WX    TMP DP  RH WIND       PRES   REMARKS
RENO           MOCLDY    46  21  37 N10       30.00R
CARSON CITY    CLOUDY    48  18  29 E3        30.02S
MINDEN         FAIR      48  16  27 SE7G16    30.02S
PYRAMID LAKE     N/A     46 N/A N/A CALM        N/A
FALLON         MOCLDY    42  18  37 E8        29.96S
LOVELOCK       MOCLDY    31  20  63 NE5       29.96R
HAWTHORNE        N/A     37  28  70 CALM      29.99R
$$

NVZ002-CAZ072-073-050600-
NORTHERN AND CENTRAL SIERRA

CITY           SKY/WX    TMP DP  RH WIND       PRES   REMARKS
S. LAKE TAHOE  PTCLDY    37  18  46 CALM      30.08S
TRUCKEE        PTCLDY    28  23  80 SW5       30.07F
SQUAW VLY 8000   N/A     32  18  55 SW17        N/A
SUSANVILLE     PTCLDY    45  32  61 W12G17    30.02R
MAMMOTH LAKES  FAIR      47  10  22 W14G22    30.08F
BRIDGEPORT       N/A     43  11  27 SW14G21   30.04F
$$

NVZ030-031-036-050600-
NORTHERN NEVADA

CITY           SKY/WX    TMP DP  RH WIND       PRES   REMARKS
ELKO           CLOUDY    36  25  64 SW6       29.86F
WINNEMUCCA     MOCLDY    46  22  38 SW16      29.91S
WENDOVER       CLOUDY    36  18  48 N5        29.81F
$$

NVZ035-037-050600-
CENTRAL NEVADA

CITY           SKY/WX    TMP DP  RH WIND       PRES   REMARKS
ELY            CLOUDY    28  19  69 SE3       29.94F
EUREKA           N/A     45  19  35 W20       29.91F
$$

NVZ013-014-050600-
SOUTH CENTRAL NEVADA

CITY           SKY/WX    TMP DP  RH WIND       PRES   REMARKS
TONOPAH        MOCLDY    32  21  64 N9        29.99F
$$

NVZ017-020-022-050600-
SOUTHERN NEVADA

CITY           SKY/WX    TMP DP  RH WIND       PRES   REMARKS
LAS VEGAS      CLOUDY    48  15  26 CALM      29.98R
N. LAS VEGAS   MOCLDY    45  18  34 NW6       29.96F
NELLIS AFB     PTCLDY    44  13  28 N8        29.96F
HENDERSON      MOCLDY    43  17  35 S8        29.97F
MERCURY        PTCLDY    41  16  36 E6        29.97S
$$



USA.gov is the U.S. government's official web portal to all federal, state and local government web resources and services.